Total_Precipitation_Accumulation
0.03 0.06 0.11 0.11 0.08 0.07 0.06 0.05 0.05 0.06 0.10 0.19 0.30 0.33 0.29 0.29 0.32 0.32 0.25 0.23 0.27 0.36 0.41 0.38 0.34 0.33 0.36 0.46 0.55 0.71 0.90 0.95 0.95 0.99 1.06 1.12 1.18 1.23 1.30 1.36 1.37 1.42 1.35 1.25
0.04 0.06 0.08 0.07 0.06 0.06 0.06 0.05 0.05 0.07 0.11 0.17 0.26 0.27 0.23 0.24 0.26 0.29 0.31 0.31 0.33 0.42 0.51 0.54 0.51 0.51 0.60 0.70 0.86 1.07 1.30 1.35 1.41 1.43 1.44 1.47 1.49 1.50 1.57 1.60 1.60 1.53 1.46 1.45
0.09 0.09 0.10 0.08 0.07 0.07 0.07 0.07 0.07 0.11 0.16 0.21 0.28 0.30 0.35 0.33 0.29 0.35 0.39 0.44 0.43 0.53 0.65 0.73 0.71 0.69 0.77 0.87 1.06 1.24 1.34 1.34 1.39 1.46 1.52 1.53 1.56 1.57 1.55 1.57 1.54 1.46 1.47 1.51
0.16 0.18 0.19 0.11 0.13 0.14 0.14 0.17 0.19 0.19 0.23 0.28 0.35 0.37 0.41 0.41 0.37 0.38 0.43 0.51 0.54 0.63 0.69 0.72 0.76 0.79 0.86 0.92 0.98 1.16 1.24 1.22 1.21 1.23 1.24 1.28 1.36 1.40 1.40 1.41 1.39 1.33 1.29 1.21
0.28 0.25 0.26 0.25 0.23 0.23 0.27 0.33 0.29 0.32 0.38 0.40 0.40 0.40 0.40 0.39 0.45 0.46 0.47 0.56 0.62 0.70 0.68 0.67 0.72 0.77 0.76 0.80 0.85 0.95 1.01 1.02 0.99 1.01 1.05 1.11 1.18 1.27 1.34 1.33 1.21 1.09 1.02 1.01
0.40 0.40 0.38 0.39 0.42 0.33 0.34 0.58 0.57 0.54 0.52 0.48 0.51 0.61 0.54 0.41 0.38 0.41 0.44 0.49 0.58 0.70 0.69 0.66 0.66 0.67 0.67 0.70 0.75 0.84 0.94 1.01 1.00 0.98 1.01 1.05 1.11 1.18 1.20 1.18 1.14 1.09 1.03 1.00
0.43 0.47 0.50 0.45 0.40 0.39 0.63 0.83 0.80 0.82 0.78 0.65 0.67 0.66 0.56 0.43 0.38 0.38 0.45 0.50 0.53 0.62 0.72 0.70 0.70 0.71 0.73 0.70 0.71 0.75 0.83 0.90 0.92 0.90 0.91 0.94 0.99 1.02 1.08 1.12 1.10 1.04 0.97 0.95
0.61 0.77 0.89 0.67 0.57 0.73 0.85 0.64 0.64 0.78 0.95 0.94 0.83 0.67 0.54 0.43 0.36 0.33 0.31 0.36 0.47 0.55 0.62 0.66 0.73 0.79 0.79 0.72 0.71 0.75 0.85 0.88 0.86 0.86 0.84 0.83 0.83 0.85 0.90 0.93 0.91 0.90 0.89 0.90
0.89 1.01 0.92 0.75 0.73 0.70 0.77 0.86 0.89 0.98 1.09 1.06 0.93 0.69 0.53 0.42 0.36 0.31 0.28 0.29 0.33 0.41 0.51 0.54 0.64 0.73 0.80 0.79 0.79 0.77 0.81 0.85 0.82 0.82 0.83 0.85 0.88 0.90 0.91 0.91 0.90 0.87 0.82 0.75
0.99 1.13 0.95 0.76 0.76 0.75 0.81 0.99 1.04 0.98 0.95 0.89 0.80 0.69 0.60 0.49 0.39 0.37 0.36 0.35 0.36 0.41 0.45 0.45 0.50 0.58 0.68 0.75 0.79 0.81 0.79 0.74 0.71 0.72 0.72 0.77 0.87 0.93 0.95 0.94 0.91 0.84 0.80 0.76
1.09 1.25 1.17 1.03 0.90 0.83 0.88 0.89 0.99 0.90 0.88 0.80 0.69 0.64 0.63 0.62 0.57 0.48 0.42 0.42 0.42 0.44 0.44 0.45 0.48 0.51 0.58 0.65 0.70 0.73 0.75 0.73 0.69 0.67 0.67 0.71 0.75 0.79 0.77 0.78 0.78 0.74 0.70 0.70
1.29 1.30 1.41 1.31 1.04 0.89 0.96 0.94 0.90 0.84 0.83 0.79 0.68 0.63 0.63 0.67 0.69 0.63 0.54 0.49 0.47 0.48 0.49 0.50 0.53 0.53 0.52 0.58 0.69 0.76 0.77 0.72 0.69 0.66 0.66 0.67 0.66 0.70 0.75 0.68 0.68 0.63 0.61 0.56
0.97 1.15 1.28 1.17 0.95 0.87 0.86 0.89 0.90 0.86 0.81 0.77 0.75 0.68 0.63 0.63 0.66 0.62 0.59 0.58 0.53 0.49 0.49 0.50 0.52 0.53 0.52 0.52 0.64 0.76 0.77 0.74 0.68 0.64 0.63 0.61 0.60 0.63 0.69 0.69 0.62 0.58 0.62 0.55
0.82 0.97 1.15 1.06 0.99 0.92 0.75 0.72 0.73 0.76 0.79 0.74 0.73 0.67 0.57 0.54 0.57 0.56 0.53 0.47 0.42 0.40 0.40 0.44 0.46 0.50 0.54 0.56 0.60 0.63 0.64 0.66 0.62 0.58 0.61 0.60 0.58 0.61 0.65 0.71 0.75 0.68 0.64 0.59
0.78 0.78 0.80 0.77 0.80 0.83 0.74 0.64 0.63 0.66 0.67 0.70 0.69 0.62 0.54 0.51 0.51 0.50 0.46 0.40 0.39 0.41 0.39 0.40 0.44 0.44 0.45 0.50 0.55 0.55 0.56 0.53 0.50 0.53 0.56 0.57 0.57 0.57 0.59 0.62 0.66 0.64 0.58 0.56
0.71 0.61 0.58 0.64 0.66 0.67 0.68 0.65 0.62 0.61 0.55 0.57 0.60 0.58 0.54 0.49 0.47 0.45 0.41 0.40 0.40 0.43 0.44 0.42 0.41 0.41 0.40 0.43 0.51 0.51 0.50 0.56 0.49 0.45 0.46 0.51 0.55 0.57 0.56 0.59 0.62 0.62 0.57 0.55
0.62 0.57 0.54 0.55 0.53 0.56 0.58 0.57 0.55 0.49 0.44 0.43 0.45 0.45 0.42 0.40 0.39 0.39 0.39 0.37 0.35 0.36 0.40 0.43 0.43 0.42 0.44 0.46 0.51 0.55 0.50 0.48 0.48 0.40 0.39 0.44 0.47 0.51 0.52 0.57 0.63 0.63 0.57 0.49
0.49 0.43 0.44 0.46 0.42 0.44 0.46 0.42 0.40 0.36 0.33 0.30 0.31 0.31 0.32 0.32 0.32 0.32 0.32 0.30 0.27 0.28 0.30 0.33 0.34 0.34 0.36 0.39 0.42 0.49 0.50 0.46 0.44 0.44 0.46 0.45 0.43 0.48 0.50 0.51 0.53 0.56 0.58 0.54
0.45 0.42 0.42 0.42 0.37 0.35 0.34 0.32 0.28 0.26 0.26 0.25 0.28 0.28 0.26 0.26 0.25 0.24 0.24 0.26 0.28 0.29 0.26 0.22 0.26 0.25 0.29 0.36 0.37 0.37 0.42 0.41 0.41 0.45 0.48 0.48 0.48 0.50 0.51 0.52 0.57 0.62 0.65 0.66
0.43 0.37 0.35 0.35 0.31 0.28 0.27 0.26 0.24 0.21 0.22 0.23 0.26 0.26 0.24 0.22 0.20 0.20 0.21 0.24 0.27 0.25 0.18 0.15 0.14 0.16 0.20 0.26 0.32 0.31 0.36 0.36 0.35 0.38 0.42 0.46 0.47 0.50 0.49 0.48 0.53 0.61 0.67 0.74
0.50 0.39 0.33 0.31 0.26 0.22 0.24 0.24 0.21 0.20 0.21 0.22 0.24 0.24 0.22 0.20 0.19 0.19 0.22 0.26 0.24 0.18 0.16 0.18 0.14 0.14 0.15 0.20 0.24 0.25 0.33 0.37 0.36 0.37 0.36 0.39 0.41 0.42 0.43 0.44 0.51 0.62 0.68 0.73
0.59 0.48 0.38 0.31 0.26 0.25 0.27 0.26 0.20 0.18 0.18 0.22 0.25 0.24 0.22 0.23 0.22 0.23 0.24 0.27 0.26 0.27 0.20 0.16 0.14 0.14 0.13 0.13 0.14 0.19 0.26 0.35 0.38 0.38 0.34 0.33 0.36 0.39 0.39 0.43 0.47 0.52 0.58 0.61
0.55 0.46 0.38 0.33 0.30 0.30 0.29 0.27 0.24 0.22 0.22 0.23 0.23 0.22 0.21 0.22 0.22 0.25 0.31 0.28 0.24 0.24 0.19 0.18 0.17 0.14 0.12 0.10 0.13 0.17 0.19 0.23 0.27 0.28 0.28 0.29 0.31 0.35 0.38 0.38 0.37 0.40 0.47 0.52
0.53 0.45 0.39 0.33 0.28 0.30 0.31 0.28 0.25 0.25 0.26 0.27 0.25 0.24 0.24 0.27 0.29 0.30 0.34 0.36 0.30 0.24 0.21 0.21 0.17 0.13 0.13 0.14 0.16 0.17 0.18 0.17 0.18 0.20 0.21 0.23 0.26 0.30 0.30 0.29 0.28 0.29 0.37 0.49
0.50 0.48 0.42 0.35 0.35 0.34 0.30 0.28 0.29 0.30 0.28 0.29 0.29 0.28 0.27 0.30 0.36 0.41 0.41 0.37 0.36 0.30 0.25 0.19 0.16 0.15 0.13 0.15 0.16 0.16 0.17 0.19 0.19 0.16 0.15 0.19 0.22 0.23 0.23 0.23 0.24 0.26 0.31 0.40
0.53 0.47 0.42 0.38 0.38 0.36 0.32 0.30 0.33 0.34 0.34 0.34 0.32 0.28 0.25 0.28 0.35 0.44 0.45 0.41 0.34 0.28 0.24 0.20 0.16 0.14 0.13 0.14 0.15 0.16 0.16 0.19 0.21 0.19 0.18 0.19 0.19 0.19 0.19 0.21 0.24 0.29 0.33 0.34
0.54 0.45 0.40 0.38 0.38 0.35 0.34 0.34 0.34 0.37 0.39 0.38 0.35 0.31 0.33 0.37 0.41 0.45 0.42 0.39 0.33 0.28 0.21 0.15 0.14 0.14 0.15 0.15 0.16 0.15 0.16 0.17 0.21 0.30 0.44 0.50 0.34 0.21 0.19 0.21 0.24 0.30 0.35 0.34